[[{"header":{"parameterUnit":"m.s-1","parameterCategory":1,"la1":30.2991,"la2":30.254,"lo1":-89.0895,"lo2":-89.0444,"dy":0.0017,"dx":0.0017,"nx":28,"ny":28,"refTime":"2024-04-06T21:00:00:Z","depth":0,"parameterNumber":2,"parameterNumberName":"U-component_of_WINDS"},"data":[0,0,0,0,0,0,0,0,0,0,0,0,0,0,0,0,0,0,0,0,0,0,0,0,0,0,0,0,0,0,0,0,0,0,0,0,0,0,0,0,0,0,0,0,0,0,0,0,0,0,0,0,0,0,0,0,0,0,-3.8992,-3.8992,0,-3.8985,-3.8984,-3.8984,-3.8845,-3.8841,-3.8837,-3.8834,-3.8828,-3.8831,-3.8835,0,0,0,0,0,0,0,0,0,0,0,0,0,-3.889,-3.8892,-3.8992,-3.8992,-3.8992,-3.8985,-3.8984,-3.8984,-3.8845,-3.8841,-3.8837,-3.8832,-3.8827,-3.8831,-3.8835,0,0,0,0,0,0,0,0,0,0,0,0,0,-3.8913,-3.8893,-3.8992,-3.8922,-3.8915,-3.8985,-3.8984,-3.8984,-3.8846,-3.8841,-3.8835,-3.883,-3.8826,-3.8831,-3.8835,-3.8972,0,0,-3.885,-3.8852,0,0,0,0,0,0,0,0,-3.8912,-3.8917,-3.8932,-3.8927,-3.892,-3.891,-3.8946,-3.898,-3.8848,-3.8873,-3.8834,-3.8828,-3.886,-3.8862,-3.8872,-3.8972,-3.8972,-3.885,-3.8853,-3.8855,-3.8857,0,0,0,0,0,0,0,-3.8911,-3.8917,-3.8989,-3.8932,-3.8925,-3.8891,-3.8889,-3.8952,-3.8897,-3.887,-3.886,-3.8861,-3.8856,-3.8868,-3.8871,-3.8972,-3.885,-3.8855,-3.8857,-3.8859,-3.9186,-3.9191,0,0,0,0,0,0,-3.8919,-3.8916,-3.8989,-3.8989,-3.8903,-3.8898,-3.8895,-3.8919,-3.8895,-3.8887,-3.8865,-3.8854,-3.8862,-3.8865,-3.887,-3.9029,-3.8855,-3.886,-3.8863,-3.918,-3.9187,-3.9193,0,0,0,0,0,0,-3.8917,-3.8926,-3.899,-3.895,-3.8955,-3.8905,-3.8933,-3.8921,-3.8933,-3.8892,-3.8882,-3.8888,-3.8858,-3.8863,-3.8948,-3.9027,-3.8862,-3.8866,-3.9173,-3.9182,-3.919,-3.9349,0,0,0,0,0,0,-3.8914,-3.8927,-3.8977,-3.8952,-3.8958,-3.9067,-3.8938,-3.8925,-3.8942,-3.8927,-3.891,-3.8902,-3.8854,-3.8942,-3.8953,-3.9031,-3.887,-3.9166,-3.9177,-3.9187,-3.9336,-3.9362,-3.9384,0,0,0,0,0,-3.8911,-3.9022,-3.898,-3.899,-3.902,-3.9072,-3.9075,-3.9017,-3.8948,-3.8999,-3.8973,-3.8903,-3.9017,-3.8952,-3.8963,-3.9044,-3.916,-3.9174,-3.9187,-3.9326,-3.9357,-3.9383,0,0,0,0,0,0,-3.9057,-3.9017,-3.897,-3.9076,-3.9079,-3.9048,-3.911,-3.9052,-3.9074,-3.906,-3.8988,-3.8985,-3.9082,-3.9071,-3.8999,-3.9176,-3.9077,-3.9093,-3.9179,-3.9208,-3.9231,-3.9231,-3.8874,0,0,0,0,0,-3.9102,-3.9147,-3.9109,-3.9207,-3.921,-3.9161,-3.9181,-3.9137,-3.9136,-3.9137,-3.9116,-3.912,-3.9156,-3.9182,-3.9213,-3.9335,-3.933,-3.9396,-3.942,-3.944,-3.9454,-3.9519,-3.9548,-3.9236,-3.9236,-3.9236,0,0,-3.9194,-3.9178,-3.921,-3.9236,-3.9232,-3.9281,-3.9162,-3.9218,-3.9254,-3.9145,-3.9223,-3.921,-3.9209,-3.9313,-3.9358,-3.9307,-3.954,-3.9457,-3.9473,-3.9476,-3.9536,-3.9565,-3.9592,-3.9245,-3.9243,-3.9242,0,0,-3.9387,-3.9379,-3.9459,-3.9459,-3.9455,-3.9422,-3.9442,-3.9421,-3.9408,-3.9485,-3.9405,-3.9448,-3.9512,-3.9515,-3.9525,-3.9723,-3.9659,-3.9736,-3.9859,-3.9924,-3.9948,-3.997,-4.004,-4.0067,-3.975,-3.9751,-3.9751,0,-3.9502,-3.9571,-3.9508,-3.957,-3.9584,-3.9489,-3.957,-3.9573,-3.9581,-3.9593,-3.9536,-3.9617,-3.9609,-3.9713,-3.9762,-3.9774,-3.9795,-3.9736,-3.995,-3.997,-3.999,-4.0056,-4.0083,-3.976,-3.9759,-3.9758,-3.9757,0,-3.9713,-3.9763,-3.9828,-3.9838,-3.986,-3.9932,-3.9881,-3.9911,-3.9866,-3.984,-3.9922,-3.991,-3.9938,-3.996,-3.9916,-4.0059,-4.0028,-3.9962,-3.986,-4.003,-4.0091,-4.0116,-3.9773,-3.977,-3.9767,-3.9765,0,0,-3.9994,-3.997,-3.9995,-3.9999,-3.999,-4.0028,-4.0097,-4.0124,-4.0151,-4.0161,-4.0217,-4.0276,-4.0215,-4.0227,-4.0184,-4.024,-4.0399,-4.0167,-4.0166,-4.021,-4.0557,-4.0606,-4.0636,-4.0358,-4.0362,-4.0366,-4.0557,0,-4.0179,-4.0294,-4.0241,-4.0362,-4.0408,-4.032,-4.038,-4.0382,-4.036,-4.0397,-4.0373,-4.0416,-4.0333,-4.0339,-4.0392,-4.0369,-4.0467,-4.0354,-4.041,-4.0413,-4.0411,-4.0668,-4.0719,-4.0899,-4.058,-4.0584,-4.0587,0,-4.041,-4.043,-4.0556,-4.054,-4.0557,-4.0612,-4.0634,-4.067,-4.0672,-4.0652,-4.0668,-4.0612,-4.068,-4.0581,-4.0674,-4.0599,-4.0619,-4.0612,-4.0618,-4.0619,-4.0509,-4.0676,-4.0955,-4.0982,-4.0625,-4.0622,-4.0619,0,-4.0602,-4.066,-4.0743,-4.0749,-4.0733,-4.0774,-4.077,-4.0766,-4.0787,-4.0807,-4.082,-4.0848,-4.0864,-4.0888,-4.0842,-4.0774,-4.0942,-4.0839,-4.0928,-4.093,-4.0966,-4.0964,-4.1251,-4.0982,-4.0981,-4.0981,-4.098,0,-4.0814,-4.0894,-4.0829,-4.088,-4.0968,-4.0908,-4.0998,-4.0984,-4.0982,-4.103,-4.0956,-4.1003,-4.094,-4.0982,-4.0947,-4.103,-4.1038,-4.1024,-4.1014,-4.103,-4.1032,-4.1041,-4.1027,-4.0988,-4.0986,-4.0985,-4.0984,0,-4.1042,-4.1001,-4.1086,-4.1065,-4.1062,-4.1128,-4.111,-4.1157,-4.1132,-4.1194,-4.1205,-4.1165,-4.121,-4.1168,-4.121,-4.1187,-4.1298,-4.127,-4.1298,-4.1289,-4.1381,-4.1372,-4.1683,-4.1721,-4.1428,-4.1431,-4.1433,0,-4.1178,-4.1238,-4.1224,-4.1251,-4.1251,-4.1295,-4.1316,-4.1261,-4.1286,-4.1294,-4.1341,-4.138,-4.1407,-4.1484,-4.146,-4.1493,-4.1465,-4.1572,-4.1469,-4.1484,-4.1466,-4.1462,-4.1468,-4.1592,-4.1595,-4.1598,-4.16,0,-4.1426,-4.1403,-4.1436,-4.1464,-4.1491,-4.151,-4.1523,-4.1549,-4.1493,-4.1525,-4.157,-4.1592,-4.1637,-4.1677,-4.1703,-4.1699,-4.1642,-4.1633,-4.1656,-4.1672,-4.1685,-4.1679,-4.1353,-4.1626,-4.1623,-4.1621,-4.162,-4.1619,-4.1611,-4.1661,-4.1659,-4.1699,-4.1704,-4.1719,-4.1762,-4.1743,-4.178,-4.1811,-4.1777,-4.1833,-4.1835,-4.1864,-4.1869,-4.1912,-4.1867,-4.19,-4.1908,-4.1916,-4.1929,-4.168,-4.1917,-4.1916,-4.1915,-4.1915,-4.1914,0,-4.1854,-4.1849,-4.1887,-4.1908,-4.194,-4.1884,-4.1896,-4.1927,-4.1977,-4.1984,-4.2014,-4.2067,-4.2107,-4.2087,-4.2121,-4.2161,-4.2135,-4.2171,-4.2167,-4.2168,-4.1967,-4.1944,-4.2192,-4.2192,-4.2192,-4.2191,-4.2191,-4.2191,-4.1983,-4.2065,-4.2044,-4.2127,-4.2122,-4.2176,-4.2188,-4.2202,-4.2208,-4.2271,-4.2303,-4.229,-4.2288,-4.2322,-4.2356,-4.235,-4.2366,-4.2412,-4.2396,-4.2209,-4.2181,-4.2155,-4.2133,-4.2416,-4.2416,-4.2592,-4.2593,-4.2595]},{"header":{"parameterUnit":"m.s-1","parameterCategory":1,"la1":30.2991,"la2":30.254,"lo1":-89.0895,"lo2":-89.0444,"dy":0.0017,"dx":0.0017,"nx":28,"ny":28,"refTime":"2024-04-06T21:00:00:Z","depth":0,"parameterNumber":3,"parameterNumberName":"V-component_of_WINDS"},"data":[0,0,0,0,0,0,0,0,0,0,0,0,0,0,0,0,0,0,0,0,0,0,0,0,0,0,0,0,0,0,0,0,0,0,0,0,0,0,0,0,0,0,0,0,0,0,0,0,0,0,0,0,0,0,0,0,0,0,2.3807,2.3807,0,2.3804,2.3804,2.3804,2.3844,2.3845,2.3846,2.3848,2.3839,2.3838,2.3837,0,0,0,0,0,0,0,0,0,0,0,0,0,2.3845,2.3844,2.3807,2.3807,2.3807,2.3804,2.3804,2.3804,2.3844,2.3845,2.3847,2.3848,2.384,2.3838,2.3837,0,0,0,0,0,0,0,0,0,0,0,0,0,2.3833,2.3843,2.3807,2.3827,2.3829,2.3804,2.3804,2.3804,2.3844,2.3845,2.3847,2.3849,2.384,2.3838,2.3837,2.3792,0,0,2.3831,2.383,0,0,0,0,0,0,0,0,2.3834,2.3832,2.3824,2.3826,2.3827,2.3826,2.3814,2.38,2.3843,2.3838,2.3848,2.3849,2.3833,2.3832,2.3828,2.3791,2.3791,2.3831,2.383,2.3829,2.3828,0,0,0,0,0,0,0,2.3835,2.3832,2.3806,2.3824,2.3826,2.3835,2.3835,2.3812,2.3826,2.3838,2.3841,2.3841,2.3835,2.383,2.3828,2.3791,2.3831,2.3829,2.3828,2.3827,2.3718,2.3717,0,0,0,0,0,0,2.3833,2.3833,2.3806,2.3806,2.3835,2.3833,2.3833,2.3825,2.3827,2.3829,2.3839,2.3843,2.3832,2.383,2.3828,2.3775,2.3829,2.3827,2.3826,2.372,2.3718,2.3716,0,0,0,0,0,0,2.3834,2.3831,2.3806,2.382,2.3818,2.383,2.3821,2.3824,2.3819,2.3827,2.383,2.3832,2.3833,2.383,2.3801,2.3776,2.3826,2.3825,2.3722,2.3719,2.3717,2.367,0,0,0,0,0,0,2.3835,2.3831,2.3814,2.382,2.3817,2.378,2.3819,2.3823,2.3816,2.3821,2.3821,2.3822,2.3834,2.3804,2.3799,2.3774,2.3823,2.3724,2.3721,2.3718,2.3674,2.3666,2.3659,0,0,0,0,0,2.3836,2.38,2.3813,2.381,2.3797,2.3778,2.3777,2.3793,2.3814,2.3797,2.3803,2.3822,2.378,2.38,2.3795,2.3769,2.3726,2.3722,2.3718,2.3677,2.3667,2.3659,0,0,0,0,0,0,2.3789,2.3801,2.3816,2.378,2.3778,2.3785,2.3764,2.3782,2.3773,2.3777,2.3796,2.3795,2.3763,2.3763,2.3786,2.3727,2.3756,2.3751,2.3727,2.3718,2.3711,2.371,2.3821,0,0,0,0,0,2.3775,2.376,2.3771,2.3738,2.3737,2.3751,2.3743,2.3756,2.3754,2.3753,2.3757,2.3753,2.3739,2.3729,2.3716,2.3675,2.3675,2.3655,2.3648,2.3642,2.3636,2.3615,2.3606,2.3703,2.3703,2.3703,0,0,2.3744,2.3749,2.3738,2.3729,2.3729,2.3713,2.375,2.373,2.3718,2.375,2.3722,2.3725,2.3722,2.3687,2.3671,2.3686,2.361,2.3637,2.3632,2.363,2.361,2.3601,2.3592,2.37,2.3701,2.3701,0,0,2.368,2.3683,2.3656,2.3657,2.3657,2.3667,2.3661,2.3666,2.3669,2.3643,2.3667,2.3652,2.3627,2.3624,2.3619,2.3558,2.3575,2.3553,2.3514,2.3493,2.3485,2.3479,2.3456,2.3447,2.3548,2.3548,2.3548,0,2.3641,2.3619,2.364,2.362,2.3615,2.3646,2.3619,2.3617,2.3613,2.3608,2.3626,2.3597,2.3597,2.3561,2.3547,2.3542,2.3535,2.3552,2.3485,2.3479,2.3473,2.3451,2.3442,2.3545,2.3546,2.3546,2.3546,0,2.3571,2.3555,2.3534,2.3531,2.3524,2.35,2.3517,2.3507,2.3522,2.353,2.3502,2.3504,2.3493,2.3486,2.3499,2.3453,2.3462,2.3482,2.3512,2.346,2.344,2.3432,2.3541,2.3542,2.3543,2.3544,0,0,2.3474,2.3486,2.3477,2.3477,2.3481,2.3468,2.3446,2.3438,2.3428,2.3425,2.3406,2.3386,2.3406,2.34,2.3414,2.3395,2.3346,2.3418,2.3418,2.3403,2.3294,2.3277,2.3268,2.3358,2.3357,2.3356,2.3294,0,2.3411,2.3375,2.3395,2.3355,2.3341,2.3371,2.3352,2.3352,2.336,2.3348,2.3356,2.3341,2.3368,2.3365,2.3349,2.3355,2.3323,2.336,2.3339,2.3338,2.3337,2.3257,2.3239,2.3181,2.3286,2.3285,2.3284,0,2.3332,2.3327,2.3287,2.3296,2.329,2.3273,2.3267,2.3255,2.3256,2.3263,2.3259,2.3277,2.3255,2.3287,2.3257,2.3281,2.3275,2.3277,2.3275,2.3272,2.3306,2.325,2.3162,2.3153,2.3272,2.3273,2.3274,0,2.3264,2.3248,2.3222,2.3221,2.323,2.3217,2.322,2.3223,2.3217,2.3212,2.3208,2.3199,2.3194,2.3187,2.3202,2.3224,2.3169,2.3203,2.3173,2.3173,2.3158,2.3158,2.3066,2.3157,2.3157,2.3157,2.3157,0,2.319,2.3164,2.3192,2.3175,2.3147,2.3171,2.3142,2.3148,2.3151,2.3135,2.3162,2.3147,2.3169,2.3156,2.3168,2.3141,2.3138,2.3142,2.3145,2.3139,2.3138,2.3133,2.3137,2.3155,2.3155,2.3156,2.3156,0,2.3108,2.3126,2.3099,2.3112,2.3114,2.3093,2.3103,2.3088,2.3099,2.3079,2.3076,2.3092,2.3078,2.3094,2.3081,2.3089,2.3052,2.3062,2.3052,2.3054,2.3023,2.3025,2.2923,2.291,2.301,2.3009,2.3008,0,2.3058,2.304,2.3051,2.3044,2.3046,2.3033,2.3028,2.3051,2.3044,2.3045,2.3029,2.3019,2.3011,2.2988,2.2997,2.2988,2.2997,2.2962,2.2995,2.299,2.2995,2.2995,2.2993,2.2954,2.2953,2.2952,2.2951,0,2.2969,2.298,2.2972,2.2967,2.2961,2.2957,2.2956,2.2949,2.2972,2.2963,2.2951,2.2945,2.2934,2.2922,2.2916,2.2918,2.2937,2.2941,2.2933,2.2925,2.292,2.2921,2.3031,2.2942,2.2943,2.2944,2.2944,2.2945,2.2901,2.2886,2.2892,2.2882,2.2885,2.2884,2.2871,2.2881,2.2871,2.2865,2.2879,2.2863,2.2865,2.2859,2.286,2.2847,2.2862,2.2851,2.2848,2.2844,2.2839,2.2924,2.2846,2.2846,2.2846,2.2847,2.2847,0,2.2812,2.2818,2.2809,2.2808,2.2801,2.2824,2.2824,2.2816,2.2802,2.2804,2.2797,2.2782,2.2772,2.2782,2.2774,2.2762,2.277,2.2758,2.2758,2.2758,2.2827,2.2834,2.2751,2.2751,2.2751,2.2751,2.2751,2.2751,2.2765,2.274,2.2752,2.2729,2.2735,2.2721,2.2719,2.2718,2.272,2.2704,2.2696,2.2704,2.2709,2.2701,2.2693,2.2696,2.2691,2.2675,2.2681,2.2744,2.2754,2.2762,2.2769,2.2674,2.2674,2.2614,2.2613,2.2613]}]]